Location: *
(1.3500°S, 147.5000°W)
Time: 20:48:49
(UTC+00:00)

Atlas Centaur 2 - Pass Details

Date: 07 April 2020
Orbit: 459 x 1310 km, 30.4° (Epoch: 02 June)

Event Time Altitude Azimuth Distance (km) Brightness Sun altitude
Rises 04:40:34 0° 289° (WNW) 3,919 7.5 -12.2°
Reaches altitude 10° 04:43:46 10° 282° (WNW) 2,827 6.4 -13.0°
Maximum altitude 04:50:04 40° 215° (SW) 1,274 3.4 -14.5°
Enters shadow 04:54:56 11° 146° (SSE) 2,194 4.0 -15.8°
